{"data":{"norad_id":54873,"intl_designator":"2022-177BF","name":"STARLINK-5091","alt_names":[],"object_type":"PAYLOAD","status":"ACTIVE","operator":null,"country":"US","launch_date":"2022-12-28","launch_site_code":"AFETR","launch_vehicle":null,"mission":null,"orbit_class":"UNKNOWN","rcs_meters":null,"size_class":null,"mass_kg":null,"dimensions":null,"purposes":["comms"],"wikipedia_slug":null,"has_3d_model":false,"image_url":null,"decayed_at":null,"tle_current":{"epoch":"2026-09-20T21:32:09.601440Z","epoch_age_seconds":58350,"freshness":"FRESH","line1":"1 54873U 22177BF  26263.89733335  .00000136  00000+0  14481-4 0  9997","line2":"2 54873  43.0025  99.2574 0001500 246.4426 113.6268 15.27576135206943","mean_motion":15.27576135,"eccentricity":0.00015,"inclination_deg":43.0025,"raan_deg":99.2574,"arg_perigee_deg":246.4426,"mean_anomaly_deg":113.6268,"bstar":1.4481e-5,"rev_number":20694,"period_min":94.266987222866,"perigee_km":482.03148961409,"apogee_km":484.08984891487,"semimajor_km":6861.1976692645,"source":"CELESTRAK","updated_at":"2026-09-21T09:00:33.163301Z"}}}